NOK992 KMEM-KORD

Flight info

Callsign NOK992
Flight time N/A
Altitude 40000
Route JTEEE5 ODATE FTZ TRTLL6
Aircraft A343/H-SDE2E3FGHIJ4J5M1RWXY/LB1D1

Departure

Time 2026-05-06 15:05
Airport Memphis International Airport (KMEM)

Arrival

Time N/A
Airport Chicago O'Hare International Airport (KORD)
Time Latitude Longitude Altitude Speed Heading
2026-05-06 14:43 35.04311 -89.97903 320 ft 0 kts 240°
2026-05-06 14:44 35.04320 -89.97883 319 ft 0 kts 240°
2026-05-06 14:51 35.04322 -89.97880 319 ft 0 kts 237°
2026-05-06 14:51 35.04330 -89.97867 317 ft 2 kts 235°
2026-05-06 14:51 35.04338 -89.97849 317 ft 2 kts 235°
2026-05-06 14:51 35.04350 -89.97837 317 ft 2 kts 179°
2026-05-06 14:52 35.04360 -89.97837 316 ft 1 kts 177°
2026-05-06 14:52 35.04361 -89.97837 316 ft 0 kts 177°
2026-05-06 14:55 35.04347 -89.97836 320 ft 8 kts 177°
2026-05-06 14:55 35.04297 -89.97833 320 ft 6 kts 177°
2026-05-06 14:55 35.04257 -89.97832 320 ft 7 kts 178°
2026-05-06 14:55 35.04204 -89.97831 319 ft 8 kts 181°
2026-05-06 14:56 35.04146 -89.97836 318 ft 8 kts 181°
2026-05-06 14:56 35.04088 -89.97837 318 ft 8 kts 181°
2026-05-06 14:56 35.04030 -89.97837 317 ft 8 kts 180°
2026-05-06 14:56 35.03968 -89.97837 317 ft 12 kts 180°
2026-05-06 14:57 35.03881 -89.97834 315 ft 13 kts 176°
2026-05-06 14:57 35.03805 -89.97850 313 ft 3 kts 216°
2026-05-06 14:57 35.03800 -89.97885 313 ft 9 kts 261°
2026-05-06 14:57 35.03796 -89.97978 314 ft 11 kts 268°
2026-05-06 14:58 35.03794 -89.98063 314 ft 9 kts 269°
2026-05-06 14:58 35.03793 -89.98134 315 ft 7 kts 269°
2026-05-06 14:58 35.03792 -89.98188 315 ft 6 kts 268°
2026-05-06 14:58 35.03791 -89.98259 315 ft 12 kts 268°
2026-05-06 14:59 35.03789 -89.98355 313 ft 11 kts 269°
2026-05-06 14:59 35.03788 -89.98444 311 ft 10 kts 269°
2026-05-06 14:59 35.03787 -89.98524 312 ft 9 kts 269°
2026-05-06 14:59 35.03763 -89.98573 315 ft 5 kts 211°
2026-05-06 15:00 35.03715 -89.98583 316 ft 11 kts 181°
2026-05-06 15:00 35.03638 -89.98583 317 ft 10 kts 180°
2026-05-06 15:00 35.03582 -89.98582 317 ft 6 kts 179°
2026-05-06 15:00 35.03531 -89.98581 318 ft 8 kts 179°
2026-05-06 15:01 35.03406 -89.98578 320 ft 20 kts 178°
2026-05-06 15:01 35.03277 -89.98575 320 ft 18 kts 179°
2026-05-06 15:01 35.03157 -89.98573 320 ft 17 kts 179°
2026-05-06 15:01 35.03045 -89.98570 319 ft 15 kts 179°
2026-05-06 15:02 35.02946 -89.98568 319 ft 13 kts 179°
2026-05-06 15:02 35.02864 -89.98566 319 ft 11 kts 179°
2026-05-06 15:02 35.02796 -89.98565 319 ft 9 kts 179°
2026-05-06 15:02 35.02743 -89.98564 319 ft 7 kts 179°
2026-05-06 15:03 35.02669 -89.98562 320 ft 16 kts 179°
2026-05-06 15:03 35.02570 -89.98560 321 ft 12 kts 179°
2026-05-06 15:03 35.02527 -89.98583 321 ft 3 kts 234°
2026-05-06 15:03 35.02515 -89.98629 322 ft 6 kts 259°
2026-05-06 15:04 35.02527 -89.98670 320 ft 7 kts 314°
2026-05-06 15:04 35.02594 -89.98693 320 ft 3 kts 358°
2026-05-06 15:04 35.02651 -89.98696 320 ft 29 kts 358°
2026-05-06 15:05 35.03061 -89.98704 318 ft 88 kts 359°
2026-05-06 15:05 35.03854 -89.98720 312 ft 137 kts 359°
2026-05-06 15:05 35.04901 -89.98758 662 ft 157 kts 359°
2026-05-06 15:05 35.06025 -89.98829 1245 ft 167 kts 357°
2026-05-06 15:06 35.07209 -89.98929 1938 ft 179 kts 356°
2026-05-06 15:06 35.08575 -89.99059 2367 ft 213 kts 355°
2026-05-06 15:06 35.10169 -89.99214 2838 ft 244 kts 353°
2026-05-06 15:06 35.11928 -89.99377 3546 ft 262 kts 352°
2026-05-06 15:07 35.13765 -89.99551 4534 ft 267 kts 349°
2026-05-06 15:07 35.15613 -89.99828 5549 ft 267 kts 344°
2026-05-06 15:07 35.17455 -90.00182 6562 ft 269 kts 343°
2026-05-06 15:07 35.19315 -90.00550 7537 ft 273 kts 343°
2026-05-06 15:08 35.21207 -90.00927 8498 ft 277 kts 343°
2026-05-06 15:08 35.23147 -90.01189 9463 ft 284 kts 348°
2026-05-06 15:08 35.25116 -90.01326 10322 ft 291 kts 349°
2026-05-06 15:08 35.27222 -90.01459 10745 ft 313 kts 349°
2026-05-06 15:09 35.29473 -90.01600 11075 ft 334 kts 349°
2026-05-06 15:09 35.31834 -90.01740 11637 ft 345 kts 349°
2026-05-06 15:09 35.34263 -90.01879 12324 ft 353 kts 348°
2026-05-06 15:09 35.36736 -90.02022 13038 ft 359 kts 348°
2026-05-06 15:10 35.39253 -90.02170 13768 ft 365 kts 347°
2026-05-06 15:10 35.41806 -90.02321 14441 ft 370 kts 347°
2026-05-06 15:10 35.43506 -90.02423 14908 ft 373 kts 347°
2026-05-06 15:10 35.44912 -90.02506 15295 ft 375 kts 347°
2026-05-06 15:11 35.47538 -90.02663 16015 ft 379 kts 346°
2026-05-06 15:11 35.50184 -90.02822 16747 ft 383 kts 346°
2026-05-06 15:11 35.52864 -90.02986 17382 ft 390 kts 346°
2026-05-06 15:11 35.55592 -90.03152 18057 ft 395 kts 346°
2026-05-06 15:12 35.58355 -90.03319 18700 ft 399 kts 346°
2026-05-06 15:12 35.61103 -90.03484 19349 ft 402 kts 346°
2026-05-06 15:12 35.63909 -90.03655 20028 ft 404 kts 346°
2026-05-06 15:12 35.66719 -90.03883 20696 ft 406 kts 344°
2026-05-06 15:13 35.69540 -90.04137 21330 ft 408 kts 344°
2026-05-06 15:13 35.72390 -90.04394 21944 ft 412 kts 344°
2026-05-06 15:13 35.75260 -90.04649 22550 ft 415 kts 344°
2026-05-06 15:13 35.78138 -90.05020 23043 ft 414 kts 338°
2026-05-06 15:14 35.80954 -90.05755 23542 ft 413 kts 334°
2026-05-06 15:14 35.83749 -90.06598 24026 ft 414 kts 334°
2026-05-06 15:14 35.86552 -90.07458 24546 ft 416 kts 333°
2026-05-06 15:14 35.89370 -90.08323 25034 ft 418 kts 333°
2026-05-06 15:15 35.92198 -90.09189 25517 ft 420 kts 333°
2026-05-06 15:15 35.95045 -90.10061 25974 ft 423 kts 333°
2026-05-06 15:15 35.97910 -90.10938 26456 ft 425 kts 333°
2026-05-06 15:15 36.00790 -90.11819 26905 ft 427 kts 333°
2026-05-06 15:16 36.03643 -90.12693 27340 ft 429 kts 333°
2026-05-06 15:16 36.06549 -90.13584 27784 ft 431 kts 333°
2026-05-06 15:16 36.09472 -90.14481 28210 ft 434 kts 333°
2026-05-06 15:16 36.12407 -90.15382 28627 ft 436 kts 333°
2026-05-06 15:17 36.15355 -90.16287 29039 ft 438 kts 333°
2026-05-06 15:17 36.18320 -90.17199 29436 ft 440 kts 333°
2026-05-06 15:17 36.21305 -90.18118 29825 ft 442 kts 333°
2026-05-06 15:17 36.24315 -90.19045 30192 ft 445 kts 333°
2026-05-06 15:18 36.27320 -90.19970 30545 ft 447 kts 332°
2026-05-06 15:18 36.30341 -90.20902 30854 ft 448 kts 332°
2026-05-06 15:18 36.33379 -90.21840 31168 ft 450 kts 332°
2026-05-06 15:18 36.36386 -90.22768 31484 ft 452 kts 332°
2026-05-06 15:19 36.39439 -90.23712 31780 ft 453 kts 332°
2026-05-06 15:19 36.42507 -90.24661 32070 ft 455 kts 331°
2026-05-06 15:19 36.45576 -90.25610 32452 ft 454 kts 331°
2026-05-06 15:19 36.48633 -90.26553 32893 ft 452 kts 331°
2026-05-06 15:20 36.51680 -90.27494 33441 ft 448 kts 330°
2026-05-06 15:20 36.54688 -90.28421 34028 ft 443 kts 330°
2026-05-06 15:20 36.57667 -90.29343 34453 ft 440 kts 329°
2026-05-06 15:20 36.60642 -90.30272 34729 ft 440 kts 329°
2026-05-06 15:21 36.63612 -90.31201 35010 ft 441 kts 329°
2026-05-06 15:21 36.66590 -90.32131 35284 ft 440 kts 329°
2026-05-06 15:21 36.69561 -90.33058 35568 ft 440 kts 329°
2026-05-06 15:21 36.72530 -90.33984 35860 ft 439 kts 329°
2026-05-06 15:22 36.75498 -90.34910 36179 ft 439 kts 329°
2026-05-06 15:22 36.78428 -90.35826 36440 ft 439 kts 329°
2026-05-06 15:22 36.81391 -90.36753 36704 ft 439 kts 329°
2026-05-06 15:22 36.84357 -90.37681 36976 ft 439 kts 329°
2026-05-06 15:23 36.87322 -90.38610 37253 ft 439 kts 329°
2026-05-06 15:23 36.90290 -90.39542 37441 ft 440 kts 329°
2026-05-06 15:23 36.93267 -90.40476 37685 ft 440 kts 329°
2026-05-06 15:23 36.96239 -90.41408 37959 ft 440 kts 329°
2026-05-06 15:24 36.99199 -90.42337 38277 ft 439 kts 329°
2026-05-06 15:24 37.02167 -90.43269 38558 ft 438 kts 329°
2026-05-06 15:24 37.04126 -90.43884 38738 ft 437 kts 329°
2026-05-06 15:24 37.07081 -90.44814 38952 ft 436 kts 329°
2026-05-06 15:25 37.09983 -90.45729 39141 ft 436 kts 329°
2026-05-06 15:25 37.12927 -90.46658 39328 ft 436 kts 329°
2026-05-06 15:25 37.15868 -90.47587 39515 ft 436 kts 329°
2026-05-06 15:25 37.18813 -90.48517 39709 ft 436 kts 329°
2026-05-06 15:26 37.21757 -90.49448 39901 ft 435 kts 329°
2026-05-06 15:26 37.24697 -90.50379 40097 ft 437 kts 329°
2026-05-06 15:26 37.27660 -90.51323 40080 ft 442 kts 329°
2026-05-06 15:27 37.34601 -90.53520 40079 ft 441 kts 329°
2026-05-06 15:27 37.40540 -90.55402 40077 ft 440 kts 329°
2026-05-06 15:28 37.45516 -90.56986 40082 ft 440 kts 329°